TimeEDT,TemperatureF,Dew PointF,Humidity,Sea Level PressureIn,VisibilityMPH,Wind Direction,Wind SpeedMPH,Gust SpeedMPH,PrecipitationIn,Events,Conditions,WindDirDegrees,DateUTC
12:15 AM,53.6,46.4,77,29.89,10.0,Calm,Calm,-,N/A,,Clear,0,2013-06-13 04:15:00
12:35 AM,51.8,46.4,82,29.88,10.0,Calm,Calm,-,N/A,,Clear,0,2013-06-13 04:35:00
12:55 AM,51.8,46.4,82,29.88,10.0,Calm,Calm,-,N/A,,Mostly Cloudy,0,2013-06-13 04:55:00
1:15 AM,51.8,46.4,82,29.87,10.0,Calm,Calm,-,N/A,,Overcast,0,2013-06-13 05:15:00
1:35 AM,51.8,46.4,82,29.86,10.0,Calm,Calm,-,N/A,,Mostly Cloudy,0,2013-06-13 05:35:00
1:55 AM,51.8,46.4,82,29.86,10.0,NNE,3.5,-,N/A,,Partly Cloudy,20,2013-06-13 05:55:00
2:15 AM,50.0,46.4,87,29.85,10.0,NNE,4.6,-,N/A,,Clear,30,2013-06-13 06:15:00
2:35 AM,51.8,46.4,82,29.84,10.0,Calm,Calm,-,N/A,,Partly Cloudy,0,2013-06-13 06:35:00
2:55 AM,50.0,46.4,87,29.83,10.0,Calm,Calm,-,N/A,,Mostly Cloudy,0,2013-06-13 06:55:00
3:15 AM,51.8,46.4,82,29.84,10.0,Calm,Calm,-,N/A,,Scattered Clouds,0,2013-06-13 07:15:00
3:35 AM,51.8,46.4,82,29.83,10.0,Calm,Calm,-,N/A,,Overcast,0,2013-06-13 07:35:00
3:55 AM,51.8,46.4,82,29.82,10.0,Calm,Calm,-,N/A,,Overcast,0,2013-06-13 07:55:00
4:15 AM,51.8,46.4,82,29.82,10.0,Calm,Calm,-,N/A,,Overcast,0,2013-06-13 08:15:00
4:35 AM,53.6,46.4,77,29.82,10.0,Calm,Calm,-,N/A,,Overcast,0,2013-06-13 08:35:00
4:55 AM,51.8,46.4,82,29.82,10.0,Calm,Calm,-,N/A,,Overcast,0,2013-06-13 08:55:00
5:15 AM,53.6,46.4,77,29.83,10.0,Calm,Calm,-,N/A,,Overcast,0,2013-06-13 09:15:00
5:35 AM,53.6,48.2,82,29.83,10.0,Calm,Calm,-,N/A,,Overcast,0,2013-06-13 09:35:00
5:55 AM,53.6,48.2,82,29.83,5.0,Calm,Calm,-,0.01,,Overcast,0,2013-06-13 09:55:00
6:15 AM,53.6,48.2,82,29.82,2.5,Calm,Calm,-,N/A,,Overcast,0,2013-06-13 10:15:00
6:35 AM,53.6,48.2,82,29.80,3.0,East,5.8,-,N/A,,Overcast,90,2013-06-13 10:35:00
6:55 AM,53.6,48.2,82,29.77,6.0,East,8.1,-,N/A,,Overcast,90,2013-06-13 10:55:00
7:15 AM,53.6,50.0,88,29.78,10.0,ESE,6.9,-,N/A,,Overcast,120,2013-06-13 11:15:00
7:35 AM,55.4,50.0,82,29.76,9.0,East,6.9,-,N/A,,Overcast,80,2013-06-13 11:35:00
7:55 AM,55.4,50.0,82,29.77,6.0,East,4.6,-,N/A,,Overcast,90,2013-06-13 11:55:00
8:15 AM,55.4,50.0,82,29.78,2.5,NE,3.5,-,N/A,,Overcast,40,2013-06-13 12:15:00
8:35 AM,53.6,50.0,88,29.76,5.0,East,8.1,-,N/A,,Overcast,80,2013-06-13 12:35:00
8:55 AM,53.6,50.0,88,29.76,5.0,ESE,6.9,-,N/A,,Overcast,110,2013-06-13 12:55:00
9:15 AM,55.4,50.0,82,29.74,3.0,ESE,10.4,-,N/A,,Overcast,110,2013-06-13 13:15:00
9:35 AM,55.4,50.0,82,29.74,4.0,ESE,8.1,-,N/A,,Overcast,110,2013-06-13 13:35:00
9:55 AM,55.4,51.8,88,29.73,2.0,East,6.9,-,N/A,,Overcast,100,2013-06-13 13:55:00
10:15 AM,55.4,51.8,88,29.71,5.0,East,8.1,-,N/A,,Overcast,100,2013-06-13 14:15:00
10:35 AM,55.4,51.8,88,29.70,5.0,East,9.2,-,N/A,,Overcast,100,2013-06-13 14:35:00
10:55 AM,55.4,51.8,88,29.70,8.0,ESE,11.5,-,N/A,,Overcast,120,2013-06-13 14:55:00
11:15 AM,55.4,51.8,88,29.69,10.0,ESE,9.2,-,N/A,,Overcast,110,2013-06-13 15:15:00
11:35 AM,55.4,51.8,88,29.66,10.0,East,10.4,-,N/A,,Overcast,100,2013-06-13 15:35:00
11:55 AM,55.4,51.8,88,29.66,10.0,East,10.4,-,N/A,,Overcast,100,2013-06-13 15:55:00
12:15 PM,55.4,51.8,88,29.66,10.0,ESE,12.7,21.9,N/A,,Overcast,120,2013-06-13 16:15:00
12:35 PM,55.4,51.8,88,29.65,10.0,ESE,13.8,-,N/A,,Overcast,120,2013-06-13 16:35:00
12:55 PM,55.4,51.8,88,29.63,10.0,ESE,15.0,20.7,N/A,,Overcast,110,2013-06-13 16:55:00
1:15 PM,55.4,51.8,88,29.62,10.0,East,15.0,21.9,N/A,,Overcast,100,2013-06-13 17:15:00
1:35 PM,55.4,51.8,88,29.62,10.0,East,15.0,23.0,N/A,,Overcast,90,2013-06-13 17:35:00
1:55 PM,55.4,51.8,88,29.62,8.0,ESE,12.7,20.7,N/A,,Overcast,110,2013-06-13 17:55:00
2:15 PM,55.4,51.8,88,29.61,5.0,ESE,15.0,21.9,N/A,,Overcast,110,2013-06-13 18:15:00
2:35 PM,55.4,50.0,82,29.61,6.0,East,12.7,23.0,N/A,,Overcast,90,2013-06-13 18:35:00
2:55 PM,55.4,50.0,82,29.61,2.5,East,13.8,-,N/A,,Overcast,90,2013-06-13 18:55:00
3:15 PM,55.4,50.0,82,29.61,3.0,East,13.8,18.4,N/A,,Overcast,100,2013-06-13 19:15:00
3:35 PM,55.4,50.0,82,29.60,4.0,East,13.8,-,N/A,,Overcast,90,2013-06-13 19:35:00
3:55 PM,55.4,51.8,88,29.59,4.0,East,12.7,-,N/A,,Overcast,90,2013-06-13 19:55:00
4:15 PM,55.4,50.0,82,29.59,4.0,East,15.0,-,N/A,,Overcast,80,2013-06-13 20:15:00
4:35 PM,53.6,50.0,88,29.58,4.0,East,16.1,21.9,N/A,,Overcast,80,2013-06-13 20:35:00
4:55 PM,53.6,50.0,88,29.58,3.0,East,10.4,19.6,N/A,,Overcast,80,2013-06-13 20:55:00
5:15 PM,53.6,50.0,88,29.58,4.0,East,15.0,19.6,N/A,,Overcast,90,2013-06-13 21:15:00
5:35 PM,53.6,50.0,88,29.58,4.0,East,15.0,19.6,N/A,,Overcast,80,2013-06-13 21:35:00
5:55 PM,53.6,48.2,82,29.58,9.0,East,13.8,20.7,N/A,,Overcast,80,2013-06-13 21:55:00
6:15 PM,53.6,48.2,82,29.57,10.0,East,16.1,23.0,N/A,,Overcast,80,2013-06-13 22:15:00
6:35 PM,53.6,48.2,82,29.57,6.0,ENE,15.0,21.9,N/A,,Overcast,70,2013-06-13 22:35:00
6:55 PM,53.6,48.2,82,29.57,9.0,ENE,19.6,25.3,N/A,,Overcast,70,2013-06-13 22:55:00
7:15 PM,53.6,48.2,82,29.56,10.0,ENE,19.6,27.6,N/A,,Overcast,70,2013-06-13 23:15:00
7:35 PM,53.6,48.2,82,29.58,10.0,East,19.6,34.5,N/A,,Overcast,80,2013-06-13 23:35:00
7:55 PM,53.6,48.2,82,29.58,2.0,ENE,15.0,24.2,N/A,,Overcast,70,2013-06-13 23:55:00
8:15 PM,51.8,48.2,88,29.60,2.5,ENE,15.0,23.0,N/A,,Overcast,70,2013-06-14 00:15:00
8:35 PM,51.8,46.4,82,29.60,2.5,ENE,19.6,25.3,N/A,,Overcast,70,2013-06-14 00:35:00
8:55 PM,51.8,46.4,82,29.60,4.0,ENE,19.6,24.2,N/A,,Overcast,60,2013-06-14 00:55:00
9:15 PM,51.8,46.4,82,29.60,5.0,ENE,17.3,21.9,N/A,,Overcast,60,2013-06-14 01:15:00
9:35 PM,51.8,46.4,82,29.61,6.0,ENE,15.0,25.3,N/A,,Overcast,60,2013-06-14 01:35:00
9:55 PM,51.8,46.4,82,29.62,9.0,NE,11.5,-,N/A,,Overcast,50,2013-06-14 01:55:00
10:15 PM,51.8,46.4,82,29.63,8.0,NE,11.5,-,N/A,,Overcast,50,2013-06-14 02:15:00
10:35 PM,51.8,46.4,82,29.63,7.0,ENE,12.7,18.4,N/A,,Overcast,60,2013-06-14 02:35:00
10:55 PM,51.8,46.4,82,29.64,8.0,NE,9.2,18.4,N/A,,Overcast,50,2013-06-14 02:55:00
11:15 PM,51.8,46.4,82,29.64,10.0,NNE,5.8,-,N/A,,Overcast,30,2013-06-14 03:15:00
11:35 PM,51.8,46.4,82,29.65,10.0,NNE,8.1,-,N/A,,Overcast,20,2013-06-14 03:35:00
11:55 PM,51.8,46.4,82,29.65,10.0,NNE,5.8,-,N/A,,Overcast,20,2013-06-14 03:55:00